Showing default

QIANFAN-1, 60379

Orbit data source: Space-Track

QIANFAN-1, 60379 is a Chinese payload satellite in LEO that was launched on Tue, 06 Aug 2024 UTC via a CHANG ZHENG 6A launch vehicle from the Taiyaun Space Center, China (TSC). Payload-class satellites include a variety of spacecraft equipped with specific instruments for various scientific and technological missions. These include communications satellites like Starlink; space stations such as the ISS; scientific satellites like the Hubble; Earth observation satellites from companies like Planet Labs, Umbra, and HawkEye 360; GPS; miniature CubeSats for education and research; and military/defense satellites.

Loading next visibility...
Identifier
60379, 2024-140A
Orbit
LEO
Country
Flag of CNCN / PRC
Related business
Manufacturer
SECM
Mission
Operational Commercial Communications
Bus & Motor
QIANFAN, Unknown motor
Mass
267 kg wet, ~267 kg dry
Launch date (UTC)
2024-08-06 (1 year ago)
Launch vehicle
CHANG ZHENG 6A
Launch site
Taiyaun Space Center, China (TSC)
Object type
Payload
Rocket body
Debris
Shape & HBR
Box + 1 Pan, 5.0 m
Radar Cross Section
13.200 m², Large (>1 m²)

Expand to show TLE details & history
Last TLE update: 13 hours ago

TLE from 13 hours ago
0 QIANFAN-1
1 60379U 24140A   25261.22218405  .00000073  00000-0  94530-4 0  9991
2 60379  88.9785 308.1438 0019747 101.8440 258.4927 13.50972641 55808
Epoch: 2025-09-18T05:19Z
TLE epoch observation values (Epoch: 2025-09-18T05:19:56.701Z)
Latitude
-0.00006°
Longitude
-129.22933°
Altitude
1,074.597 km
Speed
7.313 km/s
True Right ascension
20h 32m 34s
True Declination
0° 00' 00"
Sunlit
Object was in full shadow at epoch
Visualization orbit readout
Latitude
Unknown
Longitude
Unknown
Altitude
Unknown
Speed
Unknown
Apparent Right ascension
Unknown
Apparent Declination
Unknown
Sunlit
N/A
Visualization observer readout
Local Sidereal Time
11:19:33
Azimuth
Unknown
Elevation
Unknown
Doppler factor
Unknown
Orbital elements
Apogee altitude
1,080.433 km
Perigee altitude
1,051.034 km
Semi-major axis
7,443.87 km
Eccentricity
0.00197
Inclination
88.9785°
RAAN
308.1438°
Arg. of periapsis
101.844°
True anomaly
258.27107°
Mean anomaly
258.4927°
Eccentric anomaly
258.38188°
Mean motion
3.37944 °/min
Orbital period
106.53 mins
BSTAR
0.00009453
Loading maneuver chart data...
Computing Atmospheric mass density...
Loading historical data...
Loading historical data...
Loading historical data...
Loading historical data...
Loading historical data...
Loading historical data...
Loading historical data...

Documentation

Showing up to 5 results
|